This is the latest recevied weather packets stored in our database for station/object KI4HRG. If no packets are shown the sender has not sent any weather packets the latest 10 day(s).
| Time | Temp. | Humidity | Pressure | Rain* | Wind** | Luminosity | Snow |
|---|---|---|---|---|---|---|---|
| 1788096144 | 26.11° C | 90% | 1021.4 hPa | 0 mm | - | 139 W/m² | - |
| 1788095843 | 26.67° C | 88% | 1021.3 hPa | 0 mm | - | 147 W/m² | - |
| 1788095537 | 26.11° C | 89% | 1021.4 hPa | 0 mm | - | 210 W/m² | - |
| 1788095232 | 26.11° C | 90% | 1021.2 hPa | 0 mm | - | 194 W/m² | - |
| 1788094927 | 26.11° C | 90% | 1021 hPa | 0 mm | - | 178 W/m² | - |
| 1788094626 | 25.56° C | 91% | 1021 hPa | 0 mm | - | 158 W/m² | - |
| 1788094322 | 25.56° C | 91% | 1020.9 hPa | 0 mm | - | 115 W/m² | - |
| 1788094019 | 25.56° C | 91% | 1020.6 hPa | 0 mm | - | 115 W/m² | - |
| 1788093715 | 25° C | 94% | 1020.9 hPa | 0 mm | - | 66 W/m² | - |
| 1788093412 | 25° C | 96% | 1020.9 hPa | 0 mm | - | 64 W/m² | - |
| 1788093107 | 24.44° C | 97% | 1020.7 hPa | 0 mm | - | 64 W/m² | - |
| 1788092804 | 23.89° C | 99% | 1020.4 hPa | 0 mm | - | 50 W/m² | - |
| 1788092499 | 23.89° C | 99% | 1020.5 hPa | 0 mm | - | 44 W/m² | - |
| 1788092196 | 23.33° C | 99% | 1020.5 hPa | 0 mm | - | 39 W/m² | - |
| 1788091894 | 22.78° C | 99% | 1020.6 hPa | 0 mm | - | 35 W/m² | - |
| 1788091590 | 22.78° C | 99% | 1020.5 hPa | 0 mm | - | 31 W/m² | - |
| 1788091286 | 22.22° C | 99% | 1020.5 hPa | 0 mm | - | 26 W/m² | - |
| 1788090982 | 22.22° C | 99% | 1020.6 hPa | 0 mm | - | 23 W/m² | - |
| 1788090677 | 22.22° C | 99% | 1020.6 hPa | 0 mm | - | 20 W/m² | - |
| 1788090374 | 22.22° C | 99% | 1020.4 hPa | 0 mm | - | 17 W/m² | - |
| 1788090073 | 22.22° C | 99% | 1020.4 hPa | 0 mm | - | 13 W/m² | - |
| 1788089769 | 22.22° C | 99% | 1020.4 hPa | 0 mm | - | 10 W/m² | - |
| 1788089464 | 22.22° C | 99% | 1020.5 hPa | 0 mm | - | 7 W/m² | - |
| 1788089160 | 22.22° C | 99% | 1020.2 hPa | 0 mm | - | 3 W/m² | - |
| 1788088856 | 22.22° C | 99% | 1020.2 hPa | 0 mm | - | 2 W/m² | - |
* Rain latest hour (hover to see other rain measurements)
** Current wind speed in m/s (hover to see current wind gust speed)